Regional Weather Roundup
Issued by NWS

Home | Current Version | Previous Version | Graphics & Text | Print | Product List | Glossary On
Versions: 1 2 3 4 5 6 7 8 9 10 11 12 13 14 15 16 17 18 19 20 21 22 23 24 25 26 27 28 29 30 31 32 33 34 35 36 37 38 39 40 41 42 43 44 45 46 47 48 49 50
000
ASUS43 KLOT 270508
RWRIL

ILLINOIS REGIONAL WEATHER ROUNDUP
NATIONAL WEATHER SERVICE CHICAGO/ROMEOVILLE IL
1200 AM CDT MON APR 27 2015

NOTE: "FAIR" INDICATES FEW OR NO CLOUDS BELOW 12,000 FEET WITH NO
SIGNIFICANT WEATHER AND/OR OBSTRUCTIONS TO VISIBILITY.

* THESE STATIONS ARE NOT UNDER NWS QUALITY CONTROL. THEY ALSO MAY NOT
  REPORT WEATHER SUCH AS PRECIPITATION OR FOG.

ILZ001-002-007-009-015-016-024-270600-
NORTHWEST ILLINOIS

CITY           SKY/WX    TMP DP  RH WIND       PRES   REMARKS
MOLINE         CLEAR     40  35  83 CALM      30.06R
STERLING*      CLEAR     39  34  81 CALM      30.06R
SAVANNA*       CLEAR     41  34  76 CALM      30.05R
$$

ILZ003-004-008-010-011-017-018-270600-
NORTH CENTRAL ILLINOIS

CITY           SKY/WX    TMP DP  RH WIND       PRES   REMARKS
ROCKFORD       CLEAR     44  26  49 CALM      30.10R
FREEPORT*      CLEAR     39  30  69 E9        30.09R WCI  33
ROCHELLE*      CLEAR     39  32  75 E6        30.08R WCI  35
DE KALB*       CLEAR     37  28  68 N7        30.07R WCI  32
PERU*          CLEAR     44  30  58 E5        30.07R
$$

ILZ005-006-012>014-019>023-270600-
NORTHEAST ILLINOIS

CITY           SKY/WX    TMP DP  RH WIND       PRES   REMARKS
CHICAGO-OHARE  CLEAR     42  29  59 N9        30.05R
CHICAGO-MIDWAY CLEAR     46  31  55 N13       30.04S
AURORA         CLEAR     38  28  67 N6        30.07R WCI  33
LANSING*       CLEAR     43  30  61 N9G16     30.04R
JOLIET*        CLEAR     44  28  54 N3        30.06R
WAUKEGAN       CLEAR     42  30  62 N7        30.06R
DUPAGE AIRPORT CLEAR     36  28  73 N8        30.05R WCI  30
KANKAKEE*      CLEAR     42  30  61 NW5       30.04S
WHEELING       CLEAR     44  29  55 N8        30.07R
MORRIS*        CLEAR     40  28  61 CALM      30.03R
ROMEOVILLE*    CLEAR     42  28  58 N8        30.05R
NORTHERLY ISL    N/A     45  31  58 NW20        N/A
$$

LMZ740>746-270600-
SOUTHERN LAKE MICHIGAN

STATION/POSITION SKY/WX   TEMP    WIND        PRES    VSBY  WAVE
                          AIR SEA DIR/SP/G                  HT/PER
                          (F)     (DEG/KT/KT) (MB)    (MI)  (FT/S)
HARRISON CRIB              42     340/ 17/ 21   N/A
BURNHAM HARBOR             45     350/ 13/ 19   N/A
CALUMET HARBOR             43     330/  9/ 14   N/A
BURNS HARBOR               42     360/ 12/ 15 1016.9S
MICHIGAN CITY              41     320/ 18/ 19   N/A
MICHIGAN CITY 6N           41 45  360/ 16/ 19   N/A           4/ 6
$$

ILZ025>027-034>036-040-047-049-050-058-095>099-270600-
WEST-CENTRAL ILLINOIS

CITY           SKY/WX    TMP DP  RH WIND       PRES   REMARKS
QUINCY         CLEAR     45  36  70 NE3       30.06S
GALESBURG*     CLEAR     38  34  84 W3        30.07R
MACOMB*        CLEAR     41  37  86 W6        30.09R
JACKSONVILLE*  CLEAR     44  36  71 NE3       30.06R
PITTSFIELD*    CLEAR     45  38  78 W5        30.07R
$$

ILZ028>032-037-038-041>044-048-051>054-059>061-270600-
CENTRAL ILLINOIS

CITY           SKY/WX    TMP DP  RH WIND       PRES   REMARKS
PONTIAC        CLEAR     38  33  84 CALM      30.06R
BLOOMINGTON    CLEAR     42  31  65 CALM      30.06R
DECATUR        CLEAR     45  28  51 N3        30.04S
PEORIA         CLEAR     47  34  60 CALM      30.06S
LACON*         CLEAR     39  34  80 CALM      30.06R
LINCOLN*       CLEAR     42  35  75 CALM      30.05F
SPRINGFIELD    CLEAR     46  33  60 NE3       30.07R
TAYLORVILLE    CLEAR     41  32  70 NE5       30.05S
$$

ILZ033-039-045-046-055>057-062-063-270600-
EAST-CENTRAL ILLINOIS

CITY           SKY/WX    TMP DP  RH WIND       PRES   REMARKS
CHAMPAIGN      CLEAR     38  29  70 N7        30.03R WCI  33
DANVILLE*      CLEAR     38  30  73 NW7       29.99S WCI  32
RANTOUL*       CLEAR     38  32  78 NW3       30.03R
MATTOON        CLEAR     38  31  76 N7        30.02R WCI  33
PARIS*         CLEAR     40  32  71 NW5       30.02S
$$

ILZ079-100>102-270600-
SOUTHWEST ILLINOIS

CITY           SKY/WX    TMP DP  RH WIND       PRES   REMARKS
ALTON          CLEAR     44  40  84 CALM      30.05R
BELLEVILLE     CLEAR     47  37  66 N3        30.03R
CAHOKIA*       CLEAR     48  37  65 NE6       30.04R
SPARTA*        CLEAR     46  38  74 NE6       30.03S
$$

ILZ064>066-069>071-074>076-080>082-084>086-088>090-092>094-270600-
SOUTH-CENTRAL ILLINOIS

CITY           SKY/WX    TMP DP  RH WIND       PRES   REMARKS
CARBONDALE     CLEAR     50  38  63 N10       30.00R
CAIRO*         CLEAR     52  40  63 N7        29.97R
EFFINGHAM*     CLEAR     45  31  58 N3        30.04S
MARION         CLEAR     48  41  76 N8        30.00S
MT. VERNON     CLEAR     46  32  57 N6        30.02R
CENTRALIA*     CLEAR     45  34  66 N5        30.03R
SALEM*         CLEAR     46  36  68 N6        30.03S
METROPOLIS*    CLEAR     50  40  68 N6        29.96S
$$

ILZ067-068-072-073-078-083-087-091-270600-
SOUTHEAST ILLINOIS

CITY           SKY/WX    TMP DP  RH WIND       PRES   REMARKS
LAWRENCEVILLE  CLEAR     46  34  62 N10       30.01R
FLORA*         CLEAR     45  33  62 N7        30.03R
FAIRFIELD*     CLEAR     47  35  63 N7        30.01R
HARRISBURG*    CLEAR     50  38  63 N9        30.00S
ROBINSON*      CLEAR     44  34  68 N6        30.02R
CARMI*         CLEAR     49  34  57 N9        30.00R
$$

ABBREVIATIONS USED IN REMARKS
   TC - TEMPERATURE IN CELSIUS
  WCI - WIND CHILL INDEX
   HX - HEAT INDEX
  VSB - VISIBILITY
$$



USA.gov is the U.S. government's official web portal to all federal, state and local government web resources and services.